Location: Dal�� Lhota
(48.7500°N, 14.0167°E)
Time: 07:18:35
(UTC+00:00)

Transit 2A - Pass Details

Date: 29 July 2021
Orbit: 594 x 964 km, 66.7° (Epoch: 24 September)

Event Time Altitude Azimuth Distance (km) Brightness Sun altitude
Rises 15:37:38 0° 316° (NW) 3,247 9.8 29.1°
Reaches altitude 10° 15:40:15 10° 305° (NW) 2,379 9.4 28.6°
Maximum altitude 15:44:50 28° 248° (WSW) 1,559 9.5 27.9°
Drops below altitude 10° 15:49:44 10° 192° (SSW) 2,564 9.0 27.1°
Sets 15:52:40 0° 181° (S) 3,548 9.5 26.6°
